Regional Weather Roundup
Issued by NWS Cleveland, OH

Home | Current Version | Previous Version | Graphics & Text | Print | Product List | Glossary On
Versions: 1 2 3 4 5 6 7 8 9 10 11 12 13 14 15 16 17 18 19 20 21 22 23 24 25 26 27 28 29 30 31 32 33 34 35 36 37 38 39 40 41 42 43 44 45 46 47 48 49 50
000
ASUS41 KCLE 072210
RWRCLE
OHIO REGIONAL WEATHER ROUNDUP
NATIONAL WEATHER SERVICE WILMINGTON, OH
600 PM EDT TUE JUL 07 2015

NOTE: "FAIR" INDICATES FEW OR NO CLOUDS BELOW 12,000 FEET WITH NO
SIGNIFICANT WEATHER AND/OR OBSTRUCTIONS TO VISIBILITY.

OHZ001>008-015>018-024>027-034-035-043-044-072300-
   NORTHWEST OHIO

CITY           SKY/WX    TMP DP  RH WIND       PRES   REMARKS
DEFIANCE       CLOUDY    70  63  78 N13       29.94R
FINDLAY        CLOUDY    74  70  87 W8        29.90S
TOLEDO EXPRESS CLOUDY    67  64  90 N12       29.93R
TOLEDO EXEC    CLOUDY    69  64  84 N13       29.93R
LIMA           CLOUDY    73  71  93 W5        29.92S
$$

OHZ009>014-019>023-028>033-038-089-072300-
   NORTHEAST OHIO

CITY           SKY/WX    TMP DP  RH WIND       PRES   REMARKS
CLE-HOPKINS    LGT RAIN  72  70  93 S6        29.92F
CLE-LAKEFRONT  CLOUDY    74  70  87 SW7       29.89F
CUY CO. ARPT   LGT RAIN  73  72  94 SW7       29.92S
LORAIN-ELYRIA  LGT RAIN  72  32  23 SW8       29.91F
ASHTABULA      LGT RAIN  72  70  93 W9        29.92R FOG
AKRON-CANTON   TSTM      72  68  87 SW3G26    29.96R VSB 1
WOOSTER        LGT RAIN  70  68  93 SW7       29.95R
MANSFIELD      CLOUDY    71  69  93 S8        29.95R
YOUNGSTOWN     CLOUDY    80  69  69 SW9       29.92R
$$

OHZ042-051>053-060>062-070>072-077>081-072300-
  SOUTHWEST OHIO

CITY           SKY/WX    TMP DP  RH WIND       PRES   REMARKS
CINC-COVINGTON LGT RAIN  75  71  87 SW8       29.97R FOG
CINC-LUNKEN    LGT RAIN  77  72  84 SW17      29.96R
HAMILTON       CLOUDY    79  71  76 SW9G18    29.95S
DAYTON         LGT RAIN  72  70  93 W7        29.96R FOG
WRIGHT-PAT AFB HVY RAIN  75  73  93 W14       29.94R VSB 1
DAYTON GENERAL CLOUDY    77  71  82 SW12      29.94S
WILMINGTON     CLOUDY    75  70  84 SW15      29.95S
$$

OHZ036-037-039>041-045>050-054>059-063>069-073>076-082>088-072300-
  CENTRAL AND SOUTHEAST OHIO

CITY           SKY/WX    TMP DP  RH WIND       PRES   REMARKS
COLUMBUS       CLOUDY    75  72  90 SW6       29.94S
OSU AIRPORT    CLOUDY    76  72  87 SW7       29.94S
BOLTON FIELD   MOSUNNY   75  73  94 S3        29.95S
RICKENBACK AFB LGT RAIN  74  72  91 SW9G20    29.94S
NEWARK         CLOUDY    73  71  93 S5        29.95R
MARION         LGT RAIN  73  70  90 S5        29.93S
LANCASTER      CLOUDY    77  72  84 SW9       29.95F
ZANESVILLE     CLOUDY    74  70  87 SW7       29.95S
NEW PHILLY     CLOUDY    80  71  74 S8        29.92F
$$



USA.gov is the U.S. government's official web portal to all federal, state and local government web resources and services.